Regional Weather Roundup
Issued by NWS

Home | Current Version | Previous Version | Graphics & Text | Print | Product List | Glossary On
Versions: 1 2 3 4 5 6 7 8 9 10 11 12 13 14 15 16 17 18 19 20 21 22 23 24 25 26 27 28 29 30 31 32 33 34 35 36 37 38 39 40 41 42 43 44 45 46 47 48 49 50
000
ASUS43 KMPX 241110
RWRMN
WEATHER ROUNDUP FOR MINNESOTA
NATIONAL WEATHER SERVICE TWIN CITIES/CHANHASSEN MN
600 AM CDT TUE APR 24 2018


NOTE: "FAIR" INDICATES FEW OR NO CLOUDS BELOW 12,000 FEET WITH NO
SIGNIFICANT WEATHER AND/OR OBSTRUCTIONS TO VISIBILITY. N/A MEANS
CURRENT SKY AND/OR WEATHER CONDITIONS ARE NOT AVAILABLE.

MNZ060>063-068>070-241200-
   Twin Cities Metro

CITY           SKY/WX    TMP DP  RH WIND       PRES   REMARKS
TWIN CITIES    FAIR      46  39  76 NW3       30.13R
ST PAUL        FAIR      42  37  82 CALM      30.14R
CRYSTAL        FAIR      39  34  82 CALM      30.12R
BLAINE         FAIR      39  36  87 CALM      30.12S
LAKEVILLE      FAIR      37  37 100 CALM      30.12S
EDEN PRAIRIE   FAIR      43  38  82 CALM      30.11S
SOUTH ST PAUL  FAIR      43  36  75 CALM      30.12S
LAKE ELMO      FAIR      37  34  87 CALM      30.14R
$$
MNZ001>005-007-008-013>017-022>024-027-028-241200-
   Northwest Minnesota

CITY           SKY/WX    TMP DP  RH WIND       PRES   REMARKS
BEMIDJI        FAIR      43  30  60 N9        30.24R
HALLOCK        FAIR      36  30  80 N7        30.34R
ROSEAU         FAIR      37  30  75 N6        30.31S
WARROAD        FAIR      36  30  80 NW6       30.31R
THIEF RVR FALL CLOUDY    43  32  65 N10       30.32R
CROOKSTON      CLOUDY    41  36  81 N9        30.32R
FOSSTON        LGT RAIN  39  32  75 N12       30.29R
DETROIT LAKES  FAIR      43  36  75 N14       30.26R
MOORHEAD       RAIN      43  37  81 N17G23    30.29R
PARK RAPIDS    CLOUDY    45  31  58 N12       30.20R
MAHNOMEN       DRIZZLE   41  36  81 N13       30.27R
$$
MNZ006-009>011-018-025>026-241200-
   North Central Minnesota

CITY           SKY/WX    TMP DP  RH WIND       PRES   REMARKS
BAUDETTE       FAIR      38  30  73 N10       30.28R
FLAG ISLAND    FAIR      34  27  75 NW6       30.28R WCI  29
INTL FALLS     CLOUDY    40  30  67 N9        30.24R
WASKISH        FAIR      41  32  70 N10G18    30.26R
BIG FORK       FAIR      37  27  65 N3        30.21R
LONGVILLE      FAIR      34  28  80 CALM      30.19R
GRAND RAPIDS   MOCLDY    37  29  72 NW3       30.19R
CRANE LAKE     MOCLDY    28  27  93 CALM      30.24R
ORR            FAIR      30  27  86 CALM      30.17R
COOK           MOCLDY    28  27  93 CALM      30.19R
WALKER         CLOUDY    43  29  58 N12       30.21R
$$
MNZ012-019>021-037-241200-
   Northeast Minnesota

CITY           SKY/WX    TMP DP  RH WIND       PRES   REMARKS
DULUTH         FAIR      38  27  64 NE3       30.16R
ELY            FAIR      28  25  86 CALM      30.18R
HIBBING        MOCLDY    30  27  88 CALM      30.16S
EVELETH        FAIR      32  27  84 N5        30.18R WCI  27
DULUTH HARBOR  FAIR      37  32  81 N6        30.17R
TWO HARBORS    FAIR      39  30  70 N3        30.15R
SILVER BAY     FAIR      34  28  80 CALM      30.15R
GRAND MARAIS     N/A     38  28  67 N3        30.17R
G MARAIS ARPRT FAIR      36  25  64 N8        30.15R
$$
MNZ029>031-032-039>041-046>048-054>057-064-241200-
   West Central Minnesota

CITY           SKY/WX    TMP DP  RH WIND       PRES   REMARKS
FERGUS FALLS   CLOUDY    46  36  66 N8G18     30.20R
WHEATON        CLOUDY    46  39  76 NW15      30.23R
MORRIS         CLOUDY    43  37  81 NW12      30.17R
ALEXANDRIA     FAIR      47  33  58 N10       30.17S
ELBOW LAKE     CLOUDY    44  35  71 W9        30.21R
WADENA         CLOUDY    43  32  65 N8        30.19R
GLENWOOD       FAIR      43  34  70 N7        30.16S
APPLETON       MOCLDY    45  37  76 N5        30.16R
BENSON         CLOUDY    43  36  75 NE7       30.16S
ORTONVILLE     CLOUDY    48  39  71 N13       30.18R
MADISON        CLOUDY    46  41  81 NW6       30.17R
WILLMAR        FAIR      43  36  75 N5        30.16S
$$
MNZ033>034-036-042>043-049>051-058-059-241200-
   Central Minnesota

CITY           SKY/WX    TMP DP  RH WIND       PRES   REMARKS
ST CLOUD       FAIR      40  34  79 N5        30.14R
SAUK CENTRE    FAIR      40  32  74 N5        30.16S
PAYNESVILLE    FAIR      40  36  86 CALM      30.15S
AITKIN         FAIR      28  27  93 CALM      30.15S
PINE RIVER     FAIR      34  27  75 N6        30.21R WCI  29
BRAINERD       FAIR      36  28  73 CALM      30.16S
STAPLES        MOCLDY    37  30  75 N5        30.18R
LONG PRAIRIE   FAIR      39  32  75 NW7       30.16S
LITTLE FALLS   FAIR      45  25  45 CALM      30.16S
LITCHFIELD     FAIR      43  37  81 NW3       30.14R
BUFFALO        FAIR      38  35  89 CALM      30.13S
MAPLE LAKE     FAIR      41  36  82 NW3       30.14S
HUTCHINSON     FAIR      39  38  94 CALM      30.13F
$$
MNZ037-044-045-052-053-241200-
   East Central Minnesota

CITY           SKY/WX    TMP DP  RH WIND       PRES   REMARKS
PRINCETON      CLOUDY    39  36  87 CALM      30.13S
MORA           FAIR      37  32  81 N5        30.15R
CAMBRIDGE      FAIR      39  30  70 CALM      30.13S
RUSH CITY      FAIR      35  32  91 CALM      30.13S
MOOSE LAKE     FAIR      34  30  86 NE5       30.13S WCI  30
HINCKLEY       FAIR      43  32  65 N6        30.13R
CLOQUET        FAIR      36  27  69 N8        30.16R
MCGREGOR       FAIR      32  28  86 N3        30.17R
$$
MNZ071>073-080-081-089-090-097-098-241200-
   Southwest Minnesota

CITY           SKY/WX    TMP DP  RH WIND       PRES   REMARKS
MONTEVIDEO     CLOUDY    43  37  81 N5        30.15R
GRANITE FALLS  CLOUDY    41  39  93 N6        30.15R
CANBY          CLOUDY    46  41  82 W8        30.17S
MARSHALL       PTCLDY    38  36  92 W7        30.16R
REDWOOD FALLS  CLEAR     42  39  89 W3        30.12F
OLIVIA         CLEAR     41  36  81 N3        30.12F
PIPESTONE      CLOUDY   N/A N/A N/A CALM      30.14S
WINDOM         CLEAR     37  25  60 W3        30.13S
WORTHINGTON    PTCLDY    39  34  82 W6        30.14S
JACKSON        CLEAR     37  32  81 CALM      30.13S
TRACY          PTCLDY    42  37  82 N8        30.14R
SLAYTON        PTCLDY    37  33  86 NW3       30.15R
$$
MNZ065>067-074>077-082>085-091>093-241200-
   South Central Minnesota

CITY           SKY/WX    TMP DP  RH WIND       PRES   REMARKS
MANKATO        FAIR      46  40  79 NW3       30.13
NEW ULM        CLEAR     43  37  81 W5        30.13S
ST JAMES       CLEAR     41  37  87 CALM      30.13F
FAIRMONT       CLEAR     42  36  79 NW3       30.13S
GLENCOE        FAIR      42  43 100 CALM      30.12S
OWATONNA       FAIR      37  36  93 CALM      30.13S
WASECA         FAIR      39  36  87 CALM      30.14S FOG
ALBERT LEA     FAIR      43  37  81 CALM      30.12S
$$
MNZ078>079-086>088-094>096-241200-
   Southeast Minnesota

CITY           SKY/WX    TMP DP  RH WIND       PRES   REMARKS
ROCHESTER      FAIR      44  37  76 NW6       30.12S
RED WING       FAIR      36  28  75 CALM      30.11S
STANTON        FAIR      35  33  91 S3        30.11S
DODGE CENTER   FAIR      39  36  87 CALM      30.12S
WINONA         FAIR      36  32  87 CALM      30.11S
AUSTIN         FAIR      41  37  87 CALM      30.12S
PRESTON        MOCLDY    47  33  57 NW3       30.12S
$$
ABBREVIATIONS USED IN REMARKS
   TC - TEMPERATURES IN CELSIUS
  WCI - WIND CHILL INDEX
   HX - HEAT INDEX
  VSB - VISIBILITY
$$



USA.gov is the U.S. government's official web portal to all federal, state and local government web resources and services.